�N����,�����b,�ŏ������i�x�j,���ϕ����i�x�j,�ő啗���i�x�j,�ŏ�����(m/s),���ϕ���(m/s),�ő啗��(m/s),�C��(���j,���x�i���j,�C��(hPa),�~�J��(mm),�~�J����(�b�j,�~�J���x(mm/h),�ő�~�J���x(mm/h),�~�Ђ傤��(hit/���u),�~�Ђ傤����(�b�j,�~�Ђ傤���x(hit/���uh),�ő�~�Ђ傤���x(hit/���uh),�q�[�^���x(���j,�q�[�^�[�d���iV),�d���d���iV),�Q�Ɠd���iV)
2011/05/01,00:00:01,183,191,200,1.3,1.7,1.9,22.9,90.4,1005.1,0.89,590,5.9,////,0.0,0,0.0,////,21.7,0.0,12.2,3.521
2011/05/01,00:10:01,126,145,155,2.7,3.9,4.9,22.8,90.6,1004.8,0.43,560,3.0,////,0.0,0,0.0,////,21.7,0.0,12.3,3.521
2011/05/01,00:20:01,195,196,198,2.1,2.5,3.1,22.9,90.6,1005.0,1.56,590,3.9,////,0.0,0,0.0,////,21.5,0.0,12.3,3.521
2011/05/01,00:30:01,150,158,168,3.4,3.6,3.8,22.9,90.7,1004.8,2.87,590,23.2,////,0.0,0,0.0,////,21.8,0.0,12.3,3.523
2011/05/01,00:40:01,136,159,171,1.7,2.4,3.0,22.9,90.8,1004.5,1.47,590,11.4,////,0.0,0,0.0,////,21.5,0.0,12.3,3.520
2011/05/01,00:50:01,137,138,140,4.3,5.3,6.9,22.9,91.0,1004.1,2.21,590,9.8,////,0.0,0,0.0,////,21.7,0.0,12.4,3.521
2011/05/01,01:00:01,147,155,167,2.5,3.3,3.9,22.9,90.9,1003.7,1.85,590,8.9,////,0.0,0,0.0,////,21.8,0.0,12.2,3.523
2011/05/01,01:10:01,127,140,153,3.8,4.7,5.2,22.9,90.9,1003.8,1.14,590,10.4,////,0.0,0,0.0,////,21.8,0.0,12.3,3.521
2011/05/01,01:20:01,098,156,196,1.0,1.3,1.8,23.0,90.8,1003.0,0.99,590,3.7,////,0.0,0,0.0,////,21.8,0.0,12.3,3.521
2011/05/01,01:30:01,141,155,183,2.5,3.2,4.0,23.0,90.9,1002.8,0.35,550,2.5,////,0.0,0,0.0,////,21.7,0.0,12.3,3.523
2011/05/01,01:40:01,089,110,134,2.4,3.3,4.1,23.0,90.9,1002.7,1.02,590,8.4,////,0.0,0,0.0,////,21.8,0.0,12.3,3.520
2011/05/01,01:50:01,130,140,147,2.8,4.1,5.7,23.0,90.9,1002.0,0.38,540,2.4,////,0.0,0,0.0,////,21.8,0.0,12.4,3.521
2011/05/01,02:00:01,190,195,201,8.5,8.8,9.0,23.1,90.9,1001.9,0.90,590,4.9,////,0.0,0,0.0,////,21.8,0.0,12.3,3.521
2011/05/01,02:10:01,129,143,163,2.0,2.8,3.4,23.1,90.9,1001.5,1.15,590,4.2,////,0.0,0,0.0,////,22.0,0.0,12.3,3.520
2011/05/01,02:20:01,175,180,184,6.2,6.7,7.2,23.1,90.9,1001.1,0.51,590,0.8,////,0.0,0,0.0,////,21.8,0.0,12.3,3.520
2011/05/01,02:30:01,163,188,229,2.6,4.5,6.8,23.3,90.1,1000.5,0.13,460,0.2,////,0.0,0,0.0,////,22.0,0.0,12.3,3.521
2011/05/01,02:40:01,165,174,181,4.5,5.9,6.7,23.2,90.1,1000.2,0.31,470,4.7,////,0.0,0,0.0,////,22.2,0.0,12.3,3.523
2011/05/01,02:50:01,189,198,210,1.2,2.1,3.0,23.3,89.9,1000.6,0.46,590,1.3,////,0.0,0,0.0,////,22.0,0.0,12.3,3.520
2011/05/01,03:00:01,204,208,210,4.4,4.9,5.6,23.3,89.9,1000.4,0.73,590,5.6,////,0.0,0,0.0,////,22.0,0.0,12.2,3.521
2011/05/01,03:10:01,198,206,215,8.9,9.6,10.0,23.4,89.5,1000.9,0.52,590,3.5,////,0.0,0,0.0,////,22.2,0.0,12.3,3.523
2011/05/01,03:20:01,196,199,205,6.7,8.0,8.5,23.4,89.2,1001.4,0.91,590,8.2,////,0.0,0,0.0,////,22.2,0.0,12.3,3.521
2011/05/01,03:30:01,185,209,230,3.6,4.4,5.3,23.4,89.4,1001.1,1.03,590,5.3,////,0.0,0,0.0,////,22.2,0.0,12.3,3.523
2011/05/01,03:40:01,190,219,249,1.3,2.0,3.1,23.5,89.1,1001.3,0.54,590,7.2,////,0.0,0,0.0,////,22.2,0.0,12.2,3.523
2011/05/01,03:50:01,190,197,207,5.3,6.0,6.8,23.3,89.9,1001.2,3.60,590,16.2,////,0.0,0,0.0,////,22.2,0.0,12.2,3.521
2011/05/01,04:00:01,223,226,229,3.2,4.3,6.0,23.3,90.2,1001.5,1.29,590,4.2,////,0.0,0,0.0,////,22.2,0.0,12.3,3.523
2011/05/01,04:10:01,172,182,196,5.2,6.1,7.3,23.3,89.9,1000.9,0.72,590,10.0,////,0.0,0,0.0,////,22.0,0.0,12.2,3.523
2011/05/01,04:20:01,172,190,203,4.8,5.7,6.8,23.5,89.1,1001.3,0.73,590,4.5,////,0.0,0,0.0,////,22.2,0.0,12.2,3.523
2011/05/01,04:30:01,194,201,213,2.7,3.6,4.1,23.3,89.9,1002.1,1.18,530,0.0,////,0.0,0,0.0,////,21.8,0.0,12.3,3.523
2011/05/01,04:40:01,212,217,221,1.5,1.7,2.1,23.0,90.9,1002.2,0.21,330,1.5,////,0.0,0,0.0,////,21.8,0.0,12.3,3.521
2011/05/01,04:50:01,214,218,221,1.9,2.5,3.1,22.8,91.3,1002.3,0.04,80,0.0,////,0.0,0,0.0,////,21.7,0.0,12.3,3.523
2011/05/01,05:00:01,239,252,264,1.4,1.9,2.4,22.7,91.9,1002.2,0.00,0,0.0,////,0.0,0,0.0,////,21.5,0.0,12.2,3.521
2011/05/01,05:10:01,253,271,295,1.7,2.2,2.5,22.6,92.0,1002.1,0.00,0,0.0,////,0.0,0,0.0,////,21.5,0.0,12.3,3.523
2011/05/01,05:20:01,249,252,256,1.7,2.2,3.0,22.9,92.2,1002.0,0.00,0,0.0,////,0.0,0,0.0,////,21.7,0.0,12.3,3.521
2011/05/01,05:30:01,215,220,226,2.9,3.1,3.3,22.8,92.0,1001.7,0.00,0,0.0,////,0.0,0,0.0,////,21.8,0.0,12.3,3.521
2011/05/01,05:40:01,190,210,223,2.3,2.7,3.4,23.0,92.1,1001.6,0.00,0,0.0,////,0.0,0,0.0,////,21.8,0.0,12.3,3.521
2011/05/01,05:50:01,209,215,219,5.5,6.3,6.7,23.1,91.5,1001.7,0.00,0,0.0,////,0.0,0,0.0,////,22.2,0.0,12.3,3.520
2011/05/01,06:00:01,199,215,225,3.8,4.2,4.6,23.3,90.7,1001.8,0.00,0,0.0,////,0.0,0,0.0,////,22.4,0.0,12.3,3.523
2011/05/01,06:10:01,212,228,242,3.3,4.3,5.1,23.3,90.7,1001.9,0.00,0,0.0,////,0.0,0,0.0,////,22.5,0.0,12.3,3.518
2011/05/01,06:20:01,206,207,209,6.7,7.5,8.2,23.3,90.5,1001.9,0.00,0,0.0,////,0.0,0,0.0,////,22.4,0.0,12.3,3.523
2011/05/01,06:30:01,203,218,239,2.9,3.4,4.0,23.4,90.0,1002.0,0.00,0,0.0,////,0.0,0,0.0,////,22.7,0.0,12.3,3.523
2011/05/01,06:40:01,224,229,233,4.7,5.5,5.9,23.4,89.9,1002.2,0.00,0,0.0,////,0.0,0,0.0,////,22.7,0.0,12.3,3.523
2011/05/01,06:50:01,216,231,243,4.7,5.7,6.3,23.3,89.7,1002.4,0.00,40,0.0,////,0.0,0,0.0,////,22.7,0.0,12.3,3.521
2011/05/01,07:00:01,229,242,261,2.8,3.4,4.0,23.3,90.4,1002.4,0.03,160,0.0,////,0.0,0,0.0,////,22.0,0.0,12.3,3.521
2011/05/01,07:10:01,245,249,256,3.3,4.4,5.6,23.2,91.2,1002.5,0.08,300,0.0,////,0.0,0,0.0,////,22.2,0.0,12.3,3.521
2011/05/01,07:20:01,211,219,233,2.4,2.8,3.5,23.3,91.3,1002.6,0.00,0,0.0,////,0.0,0,0.0,////,22.4,0.0,12.3,3.521
2011/05/01,07:30:01,217,221,228,2.3,3.2,4.2,23.2,90.9,1002.6,0.00,0,0.0,////,0.0,0,0.0,////,22.5,0.0,12.3,3.521
2011/05/01,07:40:01,207,220,235,4.4,4.9,5.8,23.1,91.3,1002.6,0.00,10,0.0,////,0.0,0,0.0,////,22.5,0.0,12.3,3.523
2011/05/01,07:50:01,198,205,212,1.3,2.0,2.3,23.2,91.3,1002.7,0.00,0,0.0,////,0.0,0,0.0,////,22.4,0.0,12.3,3.523
2011/05/01,08:00:01,198,213,223,2.9,3.2,3.4,23.4,91.1,1002.7,0.00,0,0.0,////,0.0,0,0.0,////,23.1,0.0,12.2,3.521
2011/05/01,08:10:01,201,204,205,4.6,4.8,5.0,23.6,90.8,1002.8,0.00,0,0.0,////,0.0,0,0.0,////,23.4,0.0,12.3,3.523
2011/05/01,08:20:01,208,217,224,5.1,5.7,6.4,23.8,90.1,1003.0,0.00,0,0.0,////,0.0,0,0.0,////,23.6,0.0,12.3,3.521
2011/05/01,08:30:01,218,223,230,2.3,2.5,2.7,23.8,89.4,1003.2,0.00,0,0.0,////,0.0,0,0.0,////,23.7,0.0,12.3,3.521
2011/05/01,08:40:01,191,205,217,2.4,2.6,2.9,23.7,89.5,1003.2,0.00,0,0.0,////,0.0,0,0.0,////,23.6,0.0,12.3,3.523
2011/05/01,08:50:01,213,226,235,4.8,5.0,5.2,23.8,89.2,1003.2,0.00,0,0.0,////,0.0,0,0.0,////,24.1,0.0,12.3,3.521
2011/05/01,09:00:01,210,233,252,3.1,3.6,4.4,23.9,88.7,1003.3,0.00,0,0.0,////,0.0,0,0.0,////,24.4,0.0,12.2,3.521
2011/05/01,09:10:01,223,226,228,2.4,2.9,3.2,24.3,87.6,1003.5,0.00,0,0.0,////,0.0,0,0.0,////,25.3,0.0,12.3,3.521
2011/05/01,09:20:01,221,226,232,5.0,5.1,5.3,24.5,87.2,1003.6,0.00,0,0.0,////,0.0,0,0.0,////,26.2,0.0,12.3,3.521
2011/05/01,09:30:01,239,244,248,1.8,3.0,3.6,24.3,86.2,1003.7,0.00,0,0.0,////,0.0,0,0.0,////,26.0,0.0,12.3,3.520
2011/05/01,09:40:01,183,195,207,4.3,4.7,5.3,24.4,86.2,1003.7,0.00,0,0.0,////,0.0,0,0.0,////,26.2,0.0,12.3,3.521
2011/05/01,09:50:01,240,244,246,4.9,5.2,5.5,24.3,85.9,1003.8,0.00,0,0.0,////,0.0,0,0.0,////,25.8,0.0,12.3,3.520
2011/05/01,10:00:01,213,227,236,2.9,3.5,4.2,24.1,87.1,1003.8,0.00,0,0.0,////,0.0,0,0.0,////,24.4,0.0,12.3,3.521
2011/05/01,10:10:01,224,231,238,4.4,5.0,5.4,24.4,86.0,1003.9,0.00,0,0.0,////,0.0,0,0.0,////,25.8,0.0,12.3,3.521
2011/05/01,10:20:01,210,218,225,4.1,4.5,5.2,24.9,85.0,1003.9,0.00,0,0.0,////,0.0,0,0.0,////,27.0,0.0,12.3,3.524
2011/05/01,10:30:01,197,221,254,1.4,1.8,2.2,24.5,84.7,1003.9,0.00,0,0.0,////,0.0,0,0.0,////,26.0,0.0,12.3,3.521
2011/05/01,10:40:01,242,248,256,2.8,3.4,3.8,24.4,85.7,1003.8,0.00,0,0.0,////,0.0,0,0.0,////,25.1,0.0,12.3,3.520
2011/05/01,10:50:01,210,232,261,4.1,4.4,5.0,24.6,84.9,1003.8,0.00,0,0.0,////,0.0,0,0.0,////,25.8,0.0,12.3,3.521
2011/05/01,11:00:01,248,255,260,5.6,5.9,6.4,24.6,85.1,1003.8,0.00,0,0.0,////,0.0,0,0.0,////,25.8,0.0,12.3,3.521
2011/05/01,11:10:01,218,225,231,3.7,4.4,5.0,24.7,84.5,1004.0,0.00,0,0.0,////,0.0,0,0.0,////,25.8,0.0,12.3,3.521
2011/05/01,11:20:01,232,239,248,4.7,5.3,5.9,24.7,85.0,1003.8,0.00,0,0.0,////,0.0,0,0.0,////,25.6,0.0,12.2,3.521
2011/05/01,11:30:01,222,224,229,4.4,4.6,5.0,24.3,86.6,1003.6,0.00,0,0.0,////,0.0,0,0.0,////,24.6,0.0,12.3,3.521
2011/05/01,11:40:01,242,246,249,7.4,8.1,8.6,24.3,87.0,1003.5,0.00,0,0.0,////,0.0,0,0.0,////,24.4,0.0,12.3,3.521
2011/05/01,11:50:01,234,240,243,4.8,5.4,6.1,24.4,86.5,1003.6,0.00,0,0.0,////,0.0,0,0.0,////,25.0,0.0,12.3,3.521
2011/05/01,12:00:01,194,203,219,3.3,3.5,3.9,24.4,86.5,1003.5,0.00,0,0.0,////,0.0,0,0.0,////,25.1,0.0,12.3,3.523
2011/05/01,12:10:01,212,218,226,3.6,4.7,5.6,24.6,86.3,1003.6,0.00,0,0.0,////,0.0,0,0.0,////,25.5,0.0,12.3,3.521
2011/05/01,12:20:01,218,232,239,4.0,4.7,5.9,24.3,86.6,1003.5,0.00,0,0.0,////,0.0,0,0.0,////,24.6,0.0,12.2,3.524
2011/05/01,12:30:01,222,236,248,3.3,3.7,4.5,24.1,87.5,1003.5,0.00,0,0.0,////,0.0,0,0.0,////,24.1,0.0,12.3,3.520
2011/05/01,12:40:01,203,216,240,3.2,5.2,7.0,24.1,87.8,1003.5,0.00,0,0.0,////,0.0,0,0.0,////,24.1,0.0,12.3,3.521
2011/05/01,12:50:01,200,215,230,2.5,3.5,4.1,24.0,88.1,1003.5,0.00,0,0.0,////,0.0,0,0.0,////,23.6,0.0,12.3,3.523
2011/05/01,13:00:01,225,228,230,5.6,6.2,7.1,24.0,88.5,1003.4,0.00,0,0.0,////,0.0,0,0.0,////,23.7,0.0,12.3,3.521
2011/05/01,13:10:01,214,232,256,3.6,4.4,5.8,23.9,88.7,1003.3,0.00,0,0.0,////,0.0,0,0.0,////,23.4,0.0,12.3,3.523
2011/05/01,13:20:01,218,224,231,3.2,3.9,4.4,23.9,88.6,1003.3,0.00,0,0.0,////,0.0,0,0.0,////,23.4,0.0,12.3,3.524
2011/05/01,13:30:01,220,229,235,5.5,6.1,7.0,23.8,89.0,1002.9,0.00,0,0.0,////,0.0,0,0.0,////,23.4,0.0,12.3,3.521
2011/05/01,13:40:01,220,237,249,3.5,5.3,6.6,23.8,89.1,1003.0,0.00,0,0.0,////,0.0,0,0.0,////,23.6,0.0,12.3,3.521
2011/05/01,13:50:01,194,215,240,4.1,5.3,6.7,23.7,89.5,1003.0,0.00,0,0.0,////,0.0,0,0.0,////,23.2,0.0,12.3,3.521
2011/05/01,14:00:01,231,241,246,3.9,5.0,6.1,23.7,89.8,1003.1,0.00,0,0.0,////,0.0,0,0.0,////,23.2,0.0,12.3,3.523
2011/05/01,14:10:01,211,213,214,3.1,3.6,3.9,23.6,89.9,1003.0,0.01,50,0.1,////,0.0,0,0.0,////,23.1,0.0,12.2,3.521
2011/05/01,14:20:01,209,217,221,4.4,4.5,4.6,23.7,90.0,1002.9,0.00,40,0.0,////,0.0,0,0.0,////,22.9,0.0,12.3,3.524
2011/05/01,14:30:01,224,232,240,3.4,4.3,5.7,23.6,90.1,1003.0,0.05,280,0.5,////,0.0,0,0.0,////,23.1,0.0,12.3,3.523
2011/05/01,14:40:01,213,235,257,5.0,5.8,6.8,23.5,90.8,1003.0,0.31,590,3.3,////,0.0,0,0.0,////,22.7,0.0,12.3,3.521
2011/05/01,14:50:01,228,239,246,6.8,7.1,7.3,23.3,91.3,1002.9,0.39,590,1.9,////,0.0,0,0.0,////,22.4,0.0,12.3,3.521
2011/05/01,15:00:01,229,243,256,3.2,3.5,3.8,23.3,91.8,1002.8,0.25,590,2.1,////,0.0,0,0.0,////,22.2,0.0,12.3,3.523
2011/05/01,15:10:01,225,234,250,3.3,3.4,3.5,23.2,92.1,1002.8,0.79,590,4.1,////,0.0,0,0.0,////,22.4,0.0,12.3,3.521
2011/05/01,15:20:01,224,242,263,5.4,6.8,9.1,23.0,92.4,1002.9,5.25,590,47.2,////,0.0,0,0.0,////,22.0,0.0,12.3,3.521
2011/05/01,15:30:01,227,231,235,4.0,4.4,5.2,21.8,91.9,1003.0,2.19,590,4.0,////,0.0,0,0.0,////,21.2,0.0,12.3,3.523
2011/05/01,15:40:01,216,234,253,3.3,3.7,4.4,22.2,93.2,1003.0,0.03,290,0.0,////,0.0,0,0.0,////,21.2,0.0,12.3,3.523
2011/05/01,15:50:01,217,226,237,3.9,4.0,4.1,21.9,93.0,1003.0,0.03,60,1.2,////,0.0,0,0.0,////,21.0,0.0,12.3,3.521
2011/05/01,16:00:01,225,233,238,2.0,2.4,3.0,21.8,93.2,1003.1,0.11,370,0.0,////,0.0,0,0.0,////,21.0,0.0,12.3,3.521
2011/05/01,16:10:01,201,205,207,3.4,4.0,4.7,21.8,93.2,1003.1,0.00,0,0.0,////,0.0,0,0.0,////,21.0,0.0,12.3,3.521
2011/05/01,16:20:01,215,220,226,3.6,4.9,6.0,21.8,93.3,1003.2,0.00,0,0.0,////,0.0,0,0.0,////,21.2,0.0,12.2,3.521
2011/05/01,16:30:01,214,230,245,1.6,2.1,2.6,21.9,93.6,1003.2,0.00,0,0.0,////,0.0,0,0.0,////,21.3,0.0,12.3,3.521
2011/05/01,16:40:01,215,224,240,2.4,2.6,2.8,21.9,93.7,1003.2,0.00,0,0.0,////,0.0,0,0.0,////,21.3,0.0,12.3,3.523
2011/05/01,16:50:01,213,217,219,3.1,3.4,3.7,21.9,93.7,1003.4,0.00,0,0.0,////,0.0,0,0.0,////,21.3,0.0,12.3,3.521
2011/05/01,17:00:01,214,223,240,3.0,3.5,3.8,22.0,93.8,1003.5,0.00,0,0.0,////,0.0,0,0.0,////,21.3,0.0,12.3,3.523
2011/05/01,17:10:01,202,217,239,4.7,4.9,5.2,22.1,93.9,1003.4,0.00,0,0.0,////,0.0,0,0.0,////,21.3,0.0,12.3,3.521
2011/05/01,17:20:01,228,230,233,2.7,3.0,3.2,22.2,93.8,1003.4,0.00,0,0.0,////,0.0,0,0.0,////,21.7,0.0,12.3,3.521
2011/05/01,17:30:01,229,232,238,1.6,1.9,2.2,22.2,93.7,1003.5,0.00,0,0.0,////,0.0,0,0.0,////,21.5,0.0,12.2,3.523
2011/05/01,17:40:01,244,250,261,3.2,3.5,3.9,22.2,93.7,1003.7,0.00,0,0.0,////,0.0,0,0.0,////,21.5,0.0,12.3,3.521
2011/05/01,17:50:01,225,234,241,2.0,2.3,2.8,22.2,93.7,1003.9,0.00,0,0.0,////,0.0,0,0.0,////,21.5,0.0,12.3,3.521
2011/05/01,18:00:01,197,199,202,1.1,1.3,1.5,22.2,93.8,1004.0,0.00,0,0.0,////,0.0,0,0.0,////,21.5,0.0,12.3,3.521
2011/05/01,18:10:01,222,227,232,1.7,1.8,1.9,22.1,93.8,1004.1,0.00,0,0.0,////,0.0,0,0.0,////,21.5,0.0,12.3,3.523
2011/05/01,18:20:01,238,243,252,2.1,2.3,2.4,22.1,93.8,1004.1,0.00,0,0.0,////,0.0,0,0.0,////,21.3,0.0,12.3,3.521
2011/05/01,18:30:01,231,243,249,1.1,1.3,1.7,22.1,93.9,1004.2,0.00,0,0.0,////,0.0,0,0.0,////,21.3,0.0,12.3,3.523
2011/05/01,18:40:01,255,276,289,0.9,1.1,1.5,22.1,94.0,1004.3,0.00,0,0.0,////,0.0,0,0.0,////,21.5,0.0,12.3,3.520
2011/05/01,18:50:01,240,241,243,2.5,2.6,2.7,22.1,94.0,1004.4,0.00,0,0.0,////,0.0,0,0.0,////,21.3,0.0,12.3,3.523
2011/05/01,19:00:01,216,219,225,1.9,2.3,2.5,22.0,94.0,1004.6,0.00,0,0.0,////,0.0,0,0.0,////,21.2,0.0,12.3,3.523
2011/05/01,19:10:01,226,230,237,0.9,1.1,1.4,22.0,94.1,1004.7,0.00,0,0.0,////,0.0,0,0.0,////,21.2,0.0,12.3,3.521
2011/05/01,19:20:01,227,237,244,2.2,2.7,3.2,22.0,94.1,1004.7,0.00,0,0.0,////,0.0,0,0.0,////,21.0,0.0,12.2,3.521
2011/05/01,19:30:01,225,228,233,1.0,1.4,1.6,22.0,94.1,1004.8,0.00,0,0.0,////,0.0,0,0.0,////,21.0,0.0,12.3,3.521
2011/05/01,19:40:01,216,222,226,1.7,2.2,2.5,21.9,94.2,1004.8,0.00,0,0.0,////,0.0,0,0.0,////,21.0,0.0,12.3,3.521
2011/05/01,19:50:01,228,234,242,1.6,2.0,2.3,21.9,94.3,1005.1,0.00,0,0.0,////,0.0,0,0.0,////,21.2,0.0,12.3,3.521
2011/05/01,20:00:01,224,230,238,1.4,1.8,2.4,21.9,94.2,1005.0,0.00,0,0.0,////,0.0,0,0.0,////,21.0,0.0,12.3,3.523
2011/05/01,20:10:01,216,221,232,1.9,2.1,2.3,21.9,94.3,1005.1,0.00,0,0.0,////,0.0,0,0.0,////,20.5,0.0,12.3,3.521
2011/05/01,20:20:01,216,221,230,2.0,2.4,2.6,21.9,94.3,1005.2,0.00,0,0.0,////,0.0,0,0.0,////,20.8,0.0,12.3,3.521
2011/05/01,20:30:01,221,228,237,1.8,2.1,2.5,21.8,94.4,1005.3,0.00,0,0.0,////,0.0,0,0.0,////,20.8,0.0,12.3,3.521
2011/05/01,20:40:01,202,208,212,1.2,1.4,1.6,21.8,94.4,1005.3,0.00,0,0.0,////,0.0,0,0.0,////,20.8,0.0,12.3,3.523
2011/05/01,20:50:01,229,233,237,2.1,2.2,2.3,21.8,94.4,1005.5,0.00,0,0.0,////,0.0,0,0.0,////,20.8,0.0,12.3,3.523
2011/05/01,21:00:01,270,274,280,1.5,1.7,1.9,21.8,94.5,1005.7,0.00,0,0.0,////,0.0,0,0.0,////,20.8,0.0,12.3,3.523
2011/05/01,21:10:01,212,225,238,0.8,0.9,1.0,21.7,94.5,1005.8,0.00,0,0.0,////,0.0,0,0.0,////,20.8,0.0,12.3,3.523
2011/05/01,21:20:01,265,271,275,2.1,2.3,2.5,21.7,94.5,1005.9,0.00,0,0.0,////,0.0,0,0.0,////,20.8,0.0,12.3,3.523
2011/05/01,21:30:01,204,228,247,0.1,0.3,0.4,21.7,94.5,1006.0,0.00,0,0.0,////,0.0,0,0.0,////,20.8,0.0,12.3,3.521
2011/05/01,21:40:01,282,299,310,1.4,1.9,2.3,21.7,94.5,1006.1,0.00,0,0.0,////,0.0,0,0.0,////,21.2,0.0,12.3,3.521
2011/05/01,21:50:01,267,282,290,0.3,0.6,1.0,21.6,94.5,1006.2,0.00,0,0.0,////,0.0,0,0.0,////,20.8,0.0,12.3,3.523
2011/05/01,22:00:01,295,316,336,0.9,1.0,1.1,21.6,94.5,1006.3,0.00,0,0.0,////,0.0,0,0.0,////,20.6,0.0,12.3,3.521
2011/05/01,22:10:01,220,247,286,0.3,0.5,0.7,21.5,94.4,1006.4,0.00,0,0.0,////,0.0,0,0.0,////,20.6,0.0,12.3,3.521
2011/05/01,22:20:01,280,282,284,1.1,1.3,1.5,21.5,94.4,1006.2,0.00,0,0.0,////,0.0,0,0.0,////,20.6,0.0,12.3,3.521
2011/05/01,22:30:01,303,305,308,2.0,2.1,2.2,21.4,94.4,1006.4,0.00,0,0.0,////,0.0,0,0.0,////,20.5,0.0,12.3,3.521
2011/05/01,22:40:01,342,348,357,1.6,1.8,2.0,21.4,94.4,1006.3,0.00,0,0.0,////,0.0,0,0.0,////,20.5,0.0,12.3,3.521
2011/05/01,22:50:01,327,344,007,1.1,1.5,1.7,21.4,94.5,1006.2,0.00,0,0.0,////,0.0,0,0.0,////,20.6,0.0,12.3,3.521
2011/05/01,23:00:01,327,341,357,1.9,2.3,2.5,21.4,94.5,1006.1,0.00,0,0.0,////,0.0,0,0.0,////,20.6,0.0,12.3,3.523
2011/05/01,23:10:01,353,001,010,1.5,1.9,2.2,21.3,94.5,1005.9,0.00,0,0.0,////,0.0,0,0.0,////,20.6,0.0,12.3,3.523
2011/05/01,23:20:01,004,011,022,2.0,2.1,2.2,21.2,94.3,1005.8,0.00,0,0.0,////,0.0,0,0.0,////,20.5,0.0,12.3,3.523
2011/05/01,23:30:01,023,030,036,1.6,1.8,2.0,21.1,94.2,1005.7,0.00,0,0.0,////,0.0,0,0.0,////,20.3,0.0,12.3,3.521
2011/05/01,23:40:01,359,002,007,2.7,2.8,3.0,21.0,94.3,1005.6,0.00,0,0.0,////,0.0,0,0.0,////,20.1,0.0,12.3,3.521
2011/05/01,23:50:01,014,019,024,2.1,2.2,2.4,21.0,94.3,1005.4,0.00,0,0.0,////,0.0,0,0.0,////,20.1,0.0,12.3,3.523
2011/05/02,00:00:01,018,020,022,2.7,2.9,3.2,21.0,94.1,1005.3,0.00,0,0.0,////,0.0,0,0.0,////,20.1,0.0,12.3,3.523
2011/05/02,00:10:01,015,026,031,2.1,2.3,2.4,20.9,94.1,1005.3,0.00,0,0.0,////,0.0,0,0.0,////,20.3,0.0,12.3,3.523
2011/05/02,00:20:01,005,008,011,2.5,2.6,2.7,20.9,94.1,1005.0,0.00,0,0.0,////,0.0,0,0.0,////,20.1,0.0,12.3,3.523
2011/05/02,00:30:01,346,357,007,1.5,1.6,2.0,20.9,94.1,1004.8,0.00,0,0.0,////,0.0,0,0.0,////,20.1,0.0,12.3,3.523
2011/05/02,00:40:01,325,332,338,1.2,1.4,1.7,20.9,93.9,1005.0,0.00,0,0.0,////,0.0,0,0.0,////,20.1,0.0,12.3,3.521
2011/05/02,00:50:01,339,009,027,1.2,1.7,2.2,20.9,93.8,1005.0,0.00,0,0.0,////,0.0,0,0.0,////,20.1,0.0,12.3,3.521
2011/05/02,01:00:01,010,023,042,2.1,2.4,2.9,20.9,93.9,1004.8,0.00,0,0.0,////,0.0,0,0.0,////,20.1,0.0,12.3,3.523
2011/05/02,01:10:01,347,352,358,2.2,2.3,2.4,20.9,93.8,1004.8,0.00,0,0.0,////,0.0,0,0.0,////,20.1,0.0,12.3,3.521
2011/05/02,01:20:01,327,336,346,0.7,0.9,1.1,20.8,93.7,1004.7,0.00,0,0.0,////,0.0,0,0.0,////,20.0,0.0,12.3,3.521
2011/05/02,01:30:01,337,339,340,1.2,1.4,1.5,20.7,93.5,1004.7,0.00,0,0.0,////,0.0,0,0.0,////,19.8,0.0,12.3,3.521
2011/05/02,01:40:01,303,309,317,0.4,0.5,0.6,20.7,93.7,1004.7,0.00,0,0.0,////,0.0,0,0.0,////,19.8,0.0,12.3,3.521
2011/05/02,01:50:01,349,352,356,1.5,1.6,1.8,20.7,93.7,1004.8,0.00,0,0.0,////,0.0,0,0.0,////,19.6,0.0,12.3,3.521
2011/05/02,02:00:01,322,336,345,0.9,1.0,1.2,20.7,93.6,1004.9,0.00,0,0.0,////,0.0,0,0.0,////,19.8,0.0,12.3,3.521
2011/05/02,02:10:01,319,327,342,0.8,1.0,1.2,20.7,93.5,1005.0,0.00,0,0.0,////,0.0,0,0.0,////,19.8,0.0,12.2,3.521
2011/05/02,02:20:01,000,002,007,1.7,1.8,2.0,20.6,93.0,1005.1,0.00,0,0.0,////,0.0,0,0.0,////,20.0,0.0,12.3,3.523
2011/05/02,02:30:01,009,020,026,1.9,2.0,2.1,20.5,92.7,1004.9,0.00,0,0.0,////,0.0,0,0.0,////,20.1,0.0,12.3,3.521
2011/05/02,02:40:01,358,009,019,1.0,1.1,1.3,20.4,92.3,1005.2,0.00,0,0.0,////,0.0,0,0.0,////,19.8,0.0,12.3,3.521
2011/05/02,02:50:01,007,020,035,1.8,2.0,2.2,20.2,91.4,1005.2,0.00,0,0.0,////,0.0,0,0.0,////,20.0,0.0,12.3,3.521
2011/05/02,03:00:01,359,018,029,1.0,1.5,2.0,20.2,90.9,1005.2,0.00,0,0.0,////,0.0,0,0.0,////,19.6,0.0,12.3,3.523
2011/05/02,03:10:01,030,034,037,2.8,3.3,3.9,20.3,90.6,1005.2,0.00,0,0.0,////,0.0,0,0.0,////,19.6,0.0,12.3,3.523
2011/05/02,03:20:01,359,007,017,2.4,2.6,2.8,20.3,89.9,1005.2,0.00,0,0.0,////,0.0,0,0.0,////,19.8,0.0,12.3,3.521
2011/05/02,03:30:01,014,022,028,2.6,2.8,3.3,20.3,89.1,1005.3,0.00,0,0.0,////,0.0,0,0.0,////,19.8,0.0,12.3,3.523
2011/05/02,03:40:01,024,030,038,3.2,3.6,3.8,20.4,88.8,1005.4,0.00,0,0.0,////,0.0,0,0.0,////,19.6,0.0,12.3,3.521
2011/05/02,03:50:01,021,028,037,2.8,3.0,3.2,20.3,87.9,1005.3,0.00,0,0.0,////,0.0,0,0.0,////,19.6,0.0,12.3,3.523
2011/05/02,04:00:01,036,038,040,3.4,4.0,4.5,20.4,88.3,1005.4,0.00,0,0.0,////,0.0,0,0.0,////,19.8,0.0,12.3,3.523
2011/05/02,04:10:01,011,014,016,1.4,1.6,1.7,20.4,88.1,1005.5,0.00,0,0.0,////,0.0,0,0.0,////,19.6,0.0,12.3,3.521
2011/05/02,04:20:01,045,049,056,2.2,2.6,2.9,20.4,88.5,1005.3,0.00,0,0.0,////,0.0,0,0.0,////,19.6,0.0,12.3,3.520
2011/05/02,04:30:01,030,036,042,2.1,2.5,2.7,20.4,88.2,1005.3,0.00,0,0.0,////,0.0,0,0.0,////,19.6,0.0,12.3,3.521
2011/05/02,04:40:01,019,023,027,3.3,3.7,3.9,20.4,87.8,1005.5,0.00,0,0.0,////,0.0,0,0.0,////,19.6,0.0,12.3,3.521
2011/05/02,04:50:01,007,026,038,2.8,3.4,3.7,20.3,87.0,1005.6,0.00,0,0.0,////,0.0,0,0.0,////,19.6,0.0,12.3,3.521
2011/05/02,05:00:01,031,039,045,3.0,3.1,3.3,20.3,86.4,1005.7,0.00,0,0.0,////,0.0,0,0.0,////,19.6,0.0,12.3,3.521
2011/05/02,05:10:01,028,037,043,1.0,1.2,1.5,20.2,86.0,1005.4,0.00,0,0.0,////,0.0,0,0.0,////,19.4,0.0,12.3,3.521
2011/05/02,05:20:01,004,015,021,1.6,1.8,2.1,20.1,86.3,1005.6,0.00,0,0.0,////,0.0,0,0.0,////,19.4,0.0,12.3,3.523
2011/05/02,05:30:01,033,044,057,3.3,3.5,3.7,20.2,84.5,1005.8,0.00,0,0.0,////,0.0,0,0.0,////,19.4,0.0,12.3,3.523
2011/05/02,05:40:01,036,038,040,4.0,4.4,4.7,20.3,81.5,1005.6,0.00,0,0.0,////,0.0,0,0.0,////,19.8,0.0,12.3,3.521
2011/05/02,05:50:01,027,030,031,3.3,4.5,5.2,20.4,80.3,1005.8,0.00,0,0.0,////,0.0,0,0.0,////,19.8,0.0,12.3,3.523
2011/05/02,06:00:01,009,020,029,3.6,4.3,4.8,20.5,81.2,1005.9,0.00,0,0.0,////,0.0,0,0.0,////,19.8,0.0,12.3,3.521
2011/05/02,06:10:01,026,033,038,4.4,4.6,4.7,20.4,79.2,1006.0,0.00,0,0.0,////,0.0,0,0.0,////,19.6,0.0,12.3,3.521
2011/05/02,06:20:01,026,030,033,4.7,4.9,5.2,20.5,77.6,1006.1,0.00,0,0.0,////,0.0,0,0.0,////,19.8,0.0,12.3,3.520
2011/05/02,06:30:01,036,041,046,2.6,2.9,3.4,20.4,76.3,1006.1,0.00,0,0.0,////,0.0,0,0.0,////,19.8,0.0,12.3,3.521
2011/05/02,06:40:01,065,073,081,1.4,2.4,2.9,20.3,76.8,1006.0,0.00,0,0.0,////,0.0,0,0.0,////,19.6,0.0,12.3,3.523
2011/05/02,06:50:01,012,066,097,0.9,1.9,2.5,20.3,78.5,1005.9,0.00,0,0.0,////,0.0,0,0.0,////,19.8,0.0,12.3,3.523
2011/05/02,07:00:01,117,134,145,0.7,0.9,1.2,20.3,77.2,1006.0,0.00,0,0.0,////,0.0,0,0.0,////,19.8,0.0,12.3,3.523
2011/05/02,07:10:01,033,051,080,1.6,2.0,2.5,20.2,73.7,1006.1,0.00,0,0.0,////,0.0,0,0.0,////,19.8,0.0,12.3,3.521
2011/05/02,07:20:01,037,085,119,0.3,0.5,0.7,20.4,72.7,1006.2,0.00,0,0.0,////,0.0,0,0.0,////,20.0,0.0,12.3,3.523
2011/05/02,07:30:01,006,032,066,0.8,1.1,1.5,20.7,72.5,1006.1,0.00,0,0.0,////,0.0,0,0.0,////,20.5,0.0,12.3,3.523
2011/05/02,07:40:01,076,082,086,1.8,2.3,2.7,20.5,70.6,1006.3,0.00,0,0.0,////,0.0,0,0.0,////,20.3,0.0,12.3,3.521
2011/05/02,07:50:01,052,068,081,1.1,1.5,2.1,20.4,70.3,1006.4,0.00,10,0.0,////,0.0,0,0.0,////,20.1,0.0,12.2,3.523
2011/05/02,08:00:01,075,085,092,2.6,2.8,3.0,20.4,69.9,1006.4,0.00,0,0.0,////,0.0,0,0.0,////,20.0,0.0,12.3,3.520
2011/05/02,08:10:01,063,073,089,1.8,2.1,2.2,20.4,67.7,1006.4,0.00,0,0.0,////,0.0,0,0.0,////,20.1,0.0,12.3,3.521
2011/05/02,08:20:01,110,131,143,1.0,1.3,1.9,20.3,67.1,1006.6,0.00,0,0.0,////,0.0,0,0.0,////,19.8,0.0,12.2,3.521
2011/05/02,08:30:01,066,069,072,5.0,5.1,5.2,20.2,73.4,1006.6,0.05,340,0.0,////,0.0,0,0.0,////,19.1,0.0,12.3,3.524
2011/05/02,08:40:01,068,081,088,3.2,3.7,4.6,20.3,77.0,1006.6,0.02,190,0.0,////,0.0,0,0.0,////,18.9,0.0,12.3,3.520
2011/05/02,08:50:01,022,043,067,2.1,2.4,2.6,20.6,78.2,1006.7,0.00,0,0.0,////,0.0,0,0.0,////,19.8,0.0,12.3,3.523
2011/05/02,09:00:01,060,061,063,2.6,2.8,2.9,20.8,76.0,1006.9,0.00,0,0.0,////,0.0,0,0.0,////,20.6,0.0,12.3,3.521
2011/05/02,09:10:01,068,073,075,2.9,3.8,4.3,20.9,75.0,1007.2,0.00,0,0.0,////,0.0,0,0.0,////,20.8,0.0,12.3,3.524
2011/05/02,09:20:01,067,082,097,2.0,2.3,2.8,21.1,75.3,1007.2,0.00,50,0.0,////,0.0,0,0.0,////,20.8,0.0,12.3,3.521
2011/05/02,09:30:01,072,083,089,2.2,3.2,3.8,21.1,76.3,1007.3,0.00,0,0.0,////,0.0,0,0.0,////,21.0,0.0,12.3,3.523
2011/05/02,09:40:01,049,071,087,1.3,1.5,1.8,21.0,76.4,1007.1,0.08,470,0.2,////,0.0,0,0.0,////,20.5,0.0,12.2,3.521
2011/05/02,09:50:01,049,073,100,1.3,1.6,1.9,20.9,77.1,1007.0,0.00,40,0.0,////,0.0,0,0.0,////,20.1,0.0,12.3,3.521
2011/05/02,10:00:01,031,039,049,2.2,2.6,3.0,21.1,77.0,1007.0,0.01,20,0.0,////,0.0,0,0.0,////,20.6,0.0,12.3,3.521
2011/05/02,10:10:01,063,067,071,3.7,4.3,4.7,21.4,72.5,1006.9,0.00,60,0.0,////,0.0,0,0.0,////,21.5,0.0,12.3,3.523
2011/05/02,10:20:01,095,107,123,2.4,2.7,3.3,21.8,71.2,1007.3,0.00,0,0.0,////,0.0,0,0.0,////,22.2,0.0,12.3,3.521
2011/05/02,10:30:01,079,098,112,0.8,0.9,1.1,21.9,69.9,1007.6,0.00,0,0.0,////,0.0,0,0.0,////,22.7,0.0,12.3,3.521